Location: Fort Worth, Tx
(32.7431°N, 97.3695°W)
Time: 23:57:45
(UTC-04:00)

BlueWalker 3 - Pass Details

Date: 03 March 2024
Orbit: 485 x 495 km, 53.2° (Epoch: 17 April)

Event Time Altitude Azimuth Distance (km) Brightness Sun altitude
Rises 21:34:17 0° 319° (NW) 2,551 6.3 -27.1°
Reaches altitude 10° 21:36:29 10° 323° (NW) 1,666 5.1 -27.5°
Enters shadow 21:37:50 21° 328° (NNW) 1,140 4.1 -27.8°
